Terminal Aerodrome Forecast
Issued by NWS

Home | Current Version | Previous Version | Text Only | Print | Product List | Glossary On
Versions: 1 2 3 4 5 6 7 8 9 10 11 12 13 14 15 16 17 18 19 20 21 22 23 24 25 26 27 28 29 30 31 32 33 34 35 36 37 38 39 40 41 42
323
FTUS42 KMFL 132329
TAFFXE
TAF
KFXE 132329Z 1400/1424 34008G14KT P6SM FEW100
     FM140200 02008KT P6SM FEW040
      TEMPO 1406/1410 34008KT
     FM141400 07012KT P6SM SCT035=

USA.gov is the U.S. government's official web portal to all federal, state and local government web resources and services.